Location: Hartha
(51.1030°N, 12.9600°E)
Time: 22:34:31
(UTC+01:00)

ISS - Visible Passes

Search period start: 24 March 2019 00:00
Search period end: 03 April 2019 01:00
Orbit: 408 x 411 km, 51.6° (Epoch: 24 March)

Date Brightness Start Highest point End Pass type
(mag) Time Alt. Az. Time Alt. Az. Time Alt. Az.
24 Mar -3.0 19:32:23 10° SW 19:35:23 33° SSE 19:37:09 19° E visible
24 Mar -1.7 21:08:29 10° W 21:09:56 24° W 21:09:56 24° W visible
25 Mar -3.9 20:17:51 10° WSW 20:21:09 75° SSE 20:21:38 59° ESE visible
26 Mar -3.6 19:27:16 10° WSW 19:30:30 57° SSE 19:33:13 14° E visible
26 Mar -2.5 21:03:46 10° W 21:05:59 39° W 21:05:59 39° W visible
27 Mar -3.9 20:13:04 10° W 20:16:23 84° N 20:17:27 40° ENE visible
27 Mar -0.8 21:49:42 10° W 21:50:13 14° W 21:50:13 14° W visible
28 Mar -3.8 19:22:22 10° WSW 19:25:41 84° SSE 19:28:51 11° E visible
28 Mar -3.1 20:59:01 10° W 21:01:37 52° WNW 21:01:37 52° WNW visible
29 Mar -3.8 20:08:17 10° W 20:11:36 79° N 20:12:58 33° E visible
29 Mar -1.0 21:44:55 10° W 21:45:43 16° W 21:45:43 16° W visible
30 Mar -3.7 19:17:32 10° W 19:20:52 81° N 19:24:11 10° E visible
30 Mar -3.4 20:54:11 10° W 20:57:01 60° WSW 20:57:01 60° WSW visible
31 Mar -3.9 21:03:26 10° W 21:06:46 90° NNW 21:08:18 29° E visible
31 Mar -1.1 22:40:09 10° W 22:41:03 16° W 22:41:03 16° W visible
01 Apr -3.7 20:12:41 10° W 20:16:01 81° N 20:19:20 10° E visible
01 Apr -3.2 21:49:19 10° W 21:52:20 46° SW 21:52:20 46° SW visible
02 Apr -3.7 20:58:32 10° W 21:01:50 65° SSW 21:03:36 24° ESE visible
02 Apr -1.0 22:35:37 10° W 22:36:21 13° WSW 22:36:21 13° WSW visible
